QPF
0.05 0.06 0.07 0.10 0.12 0.11 0.11 0.11 0.10 0.10 0.09 0.10 0.12 0.08 0.07 0.08 0.04 0.02 0.05 0.07 0.04 0.03 0.03 0.03 0.03 0.03 0.04 0.08 0.09 0.05 0.04 0.05 0.05 0.05 0.06 0.12 0.14 0.10 0.08 0.06 0.04 0.04 0.05
0.05 0.06 0.09 0.10 0.13 0.13 0.13 0.14 0.13 0.10 0.09 0.08 0.07 0.06 0.05 0.04 0.03 0.03 0.04 0.04 0.04 0.04 0.03 0.02 0.03 0.03 0.04 0.09 0.13 0.09 0.07 0.06 0.05 0.04 0.04 0.06 0.08 0.08 0.07 0.05 0.05 0.05 0.03
0.04 0.07 0.08 0.08 0.10 0.09 0.11 0.14 0.18 0.16 0.12 0.09 0.07 0.05 0.03 0.03 0.03 0.03 0.04 0.04 0.03 0.03 0.03 0.03 0.03 0.03 0.03 0.04 0.05 0.05 0.05 0.05 0.04 0.04 0.04 0.04 0.03 0.04 0.05 0.04 0.04 0.05 0.06
0.04 0.05 0.07 0.08 0.10 0.06 0.06 0.08 0.09 0.11 0.11 0.09 0.06 0.04 0.05 0.03 0.03 0.03 0.03 0.04 0.03 0.02 0.03 0.04 0.04 0.04 0.03 0.03 0.04 0.04 0.04 0.04 0.03 0.04 0.04 0.03 0.03 0.03 0.03 0.03 0.03 0.04 0.05
0.04 0.05 0.06 0.07 0.06 0.05 0.05 0.06 0.05 0.05 0.04 0.04 0.03 0.03 0.03 0.03 0.03 0.03 0.04 0.03 0.03 0.04 0.05 0.06 0.08 0.06 0.05 0.05 0.05 0.05 0.04 0.03 0.03 0.03 0.03 0.02 0.02 0.02 0.03 0.03 0.03 0.03 0.03
0.03 0.04 0.04 0.04 0.03 0.04 0.05 0.05 0.04 0.03 0.02 0.03 0.03 0.03 0.04 0.04 0.04 0.04 0.03 0.03 0.04 0.04 0.07 0.09 0.09 0.08 0.05 0.04 0.04 0.03 0.02 0.02 0.02 0.03 0.03 0.03 0.02 0.02 0.03 0.03 0.02 0.03 0.02
0.02 0.02 0.02 0.03 0.03 0.03 0.04 0.03 0.03 0.02 0.03 0.03 0.03 0.02 0.04 0.05 0.05 0.03 0.02 0.03 0.05 0.05 0.07 0.10 0.11 0.10 0.08 0.07 0.05 0.03 0.02 0.02 0.03 0.03 0.03 0.03 0.04 0.05 0.05 0.05 0.04 0.03 0.02
0.02 0.02 0.03 0.03 0.02 0.03 0.03 0.03 0.03 0.03 0.03 0.04 0.05 0.03 0.05 0.05 0.07 0.06 0.04 0.04 0.04 0.05 0.06 0.10 0.14 0.15 0.14 0.07 0.06 0.06 0.03 0.03 0.04 0.03 0.02 0.02 0.03 0.05 0.05 0.05 0.05 0.04 0.03
0.04 0.02 0.02 0.02 0.02 0.02 0.02 0.02 0.02 0.03 0.03 0.02 0.04 0.04 0.05 0.04 0.05 0.06 0.06 0.05 0.04 0.05 0.07 0.11 0.14 0.15 0.14 0.10 0.08 0.07 0.04 0.03 0.03 0.03 0.02 0.02 0.03 0.03 0.03 0.05 0.06 0.08 0.07
0.03 0.01 0.01 0.01 0.01 0.01 0.01 0.02 0.02 0.02 0.03 0.02 0.03 0.03 0.05 0.05 0.04 0.04 0.06 0.07 0.06 0.06 0.07 0.08 0.13 0.16 0.17 0.21 0.14 0.09 0.06 0.05 0.03 0.03 0.03 0.03 0.04 0.03 0.03 0.04 0.08 0.10 0.12
0.02 0.02 0.02 0.02 0.02 0.02 0.02 0.02 0.02 0.01 0.02 0.01 0.02 0.03 0.04 0.06 0.05 0.03 0.04 0.09 0.06 0.08 0.08 0.07 0.07 0.11 0.14 0.17 0.18 0.10 0.08 0.07 0.05 0.04 0.04 0.03 0.03 0.04 0.04 0.04 0.05 0.07 0.11
0.03 0.03 0.03 0.03 0.04 0.03 0.03 0.03 0.02 0.01 0.01 0.01 0.02 0.03 0.04 0.04 0.06 0.05 0.05 0.05 0.06 0.11 0.10 0.12 0.12 0.10 0.09 0.08 0.08 0.07 0.07 0.08 0.08 0.06 0.05 0.03 0.01 0.03 0.03 0.03 0.04 0.05 0.09
0.03 0.04 0.05 0.06 0.07 0.07 0.05 0.04 0.02 0.02 0.01 0.01 0.01 0.02 0.03 0.04 0.04 0.05 0.06 0.06 0.05 0.08 0.11 0.18 0.20 0.10 0.07 0.06 0.05 0.03 0.05 0.07 0.07 0.05 0.05 0.05 0.03 0.02 0.03 0.04 0.05 0.05 0.08
0.04 0.05 0.07 0.10 0.14 0.13 0.07 0.04 0.03 0.03 0.02 0.02 0.01 0.01 0.02 0.04 0.05 0.05 0.07 0.08 0.06 0.06 0.07 0.10 0.12 0.09 0.12 0.10 0.05 0.05 0.04 0.05 0.07 0.06 0.04 0.04 0.05 0.04 0.03 0.03 0.03 0.05 0.06
0.05 0.07 0.10 0.14 0.14 0.09 0.06 0.05 0.03 0.03 0.02 0.02 0.01 0.01 0.02 0.03 0.06 0.07 0.09 0.09 0.09 0.07 0.04 0.04 0.05 0.06 0.10 0.11 0.09 0.08 0.07 0.06 0.05 0.07 0.06 0.03 0.03 0.04 0.05 0.05 0.04 0.04 0.04
0.05 0.10 0.12 0.11 0.10 0.07 0.06 0.05 0.04 0.04 0.03 0.02 0.02 0.02 0.02 0.03 0.05 0.08 0.09 0.09 0.08 0.08 0.06 0.03 0.03 0.03 0.04 0.06 0.07 0.09 0.10 0.09 0.06 0.06 0.05 0.04 0.03 0.02 0.03 0.03 0.02 0.01 0.02
0.04 0.07 0.08 0.09 0.07 0.05 0.05 0.05 0.05 0.04 0.04 0.03 0.03 0.02 0.02 0.02 0.04 0.08 0.09 0.08 0.06 0.06 0.04 0.03 0.03 0.04 0.06 0.05 0.06 0.06 0.07 0.08 0.07 0.08 0.06 0.05 0.04 0.03 0.02 0.02 0.02 0.01 0.00
0.04 0.05 0.03 0.04 0.07 0.05 0.05 0.05 0.05 0.04 0.04 0.03 0.03 0.02 0.02 0.03 0.05 0.06 0.08 0.07 0.06 0.06 0.06 0.07 0.08 0.05 0.05 0.04 0.05 0.05 0.04 0.03 0.04 0.06 0.07 0.05 0.04 0.04 0.03 0.02 0.02 0.02 0.01
0.02 0.02 0.02 0.02 0.02 0.03 0.04 0.05 0.06 0.06 0.05 0.05 0.05 0.03 0.03 0.03 0.04 0.05 0.05 0.05 0.05 0.06 0.07 0.08 0.05 0.03 0.02 0.03 0.03 0.03 0.03 0.02 0.02 0.04 0.08 0.06 0.03 0.02 0.02 0.01 0.01 0.02 0.02
0.01 0.01 0.02 0.02 0.02 0.02 0.03 0.05 0.07 0.09 0.08 0.07 0.05 0.04 0.03 0.02 0.03 0.04 0.05 0.04 0.04 0.06 0.08 0.07 0.04 0.03 0.02 0.02 0.02 0.03 0.03 0.02 0.02 0.03 0.03 0.04 0.03 0.02 0.01 0.01 0.01 0.01 0.01
0.00 0.01 0.01 0.01 0.01 0.01 0.02 0.03 0.05 0.05 0.06 0.06 0.05 0.04 0.05 0.05 0.06 0.06 0.05 0.03 0.03 0.04 0.06 0.08 0.06 0.03 0.02 0.02 0.02 0.02 0.02 0.02 0.03 0.03 0.02 0.04 0.04 0.02 0.01 0.01 0.00 0.00 0.01
0.00 0.00 0.01 0.01 0.01 0.01 0.03 0.04 0.04 0.04 0.05 0.07 0.07 0.05 0.05 0.06 0.08 0.09 0.09 0.07 0.07 0.05 0.04 0.04 0.04 0.02 0.01 0.02 0.03 0.04 0.04 0.04 0.03 0.04 0.04 0.03 0.04 0.03 0.02 0.01 0.00 0.00 0.00
0.01 0.01 0.01 0.01 0.01 0.02 0.04 0.04 0.04 0.04 0.06 0.07 0.05 0.04 0.03 0.04 0.06 0.06 0.07 0.07 0.06 0.05 0.04 0.04 0.03 0.01 0.01 0.02 0.03 0.03 0.04 0.05 0.05 0.05 0.05 0.04 0.04 0.04 0.03 0.01 0.01 0.01 0.00
0.01 0.01 0.01 0.01 0.01 0.02 0.02 0.02 0.02 0.02 0.03 0.05 0.03 0.02 0.03 0.03 0.04 0.04 0.04 0.04 0.03 0.03 0.03 0.03 0.02 0.01 0.01 0.02 0.03 0.04 0.05 0.06 0.06 0.08 0.09 0.09 0.09 0.07 0.04 0.02 0.01 0.01 0.01
0.01 0.01 0.01 0.01 0.01 0.01 0.01 0.01 0.01 0.01 0.01 0.01 0.00 0.01 0.01 0.02 0.02 0.03 0.03 0.03 0.02 0.02 0.02 0.02 0.02 0.02 0.02 0.04 0.05 0.06 0.05 0.06 0.07 0.09 0.09 0.08 0.07 0.06 0.04 0.03 0.02 0.01 0.01
0.01 0.01 0.01 0.01 0.01 0.01 0.01 0.02 0.01 0.01 0.00 0.00 0.00 0.01 0.01 0.01 0.02 0.03 0.03 0.03 0.02 0.02 0.02 0.03 0.03 0.03 0.02 0.03 0.04 0.05 0.05 0.06 0.05 0.06 0.08 0.09 0.06 0.02 0.01 0.01 0.01 0.01 0.02
MSLP
1011.64 1011.80 1011.94 1012.08 1012.26 1012.50 1012.80 1013.15 1013.54 1013.92 1014.28 1014.58 1014.83 1015.03 1015.18 1015.30 1015.42 1015.55 1015.69 1015.85 1016.03 1016.21 1016.40 1016.59 1016.78 1016.97 1017.15 1017.32 1017.47 1017.59 1017.68 1017.74 1017.79 1017.82 1017.86 1017.91 1017.99 1018.09 1018.22 1018.36 1018.52 1018.68 1018.83
1012.37 1012.53 1012.65 1012.78 1012.93 1013.13 1013.39 1013.70 1014.04 1014.41 1014.76 1015.08 1015.35 1015.57 1015.74 1015.87 1015.97 1016.05 1016.13 1016.22 1016.33 1016.46 1016.62 1016.79 1016.98 1017.17 1017.34 1017.50 1017.62 1017.71 1017.76 1017.79 1017.79 1017.79 1017.81 1017.85 1017.92 1018.02 1018.14 1018.29 1018.45 1018.62 1018.79
1013.03 1013.17 1013.30 1013.43 1013.57 1013.76 1013.99 1014.27 1014.59 1014.93 1015.28 1015.61 1015.90 1016.14 1016.33 1016.45 1016.53 1016.57 1016.60 1016.63 1016.68 1016.75 1016.87 1017.01 1017.18 1017.35 1017.51 1017.64 1017.73 1017.78 1017.79 1017.77 1017.73 1017.70 1017.68 1017.70 1017.76 1017.85 1017.98 1018.13 1018.31 1018.49 1018.68
1013.56 1013.70 1013.83 1013.98 1014.15 1014.34 1014.57 1014.84 1015.14 1015.47 1015.81 1016.14 1016.44 1016.70 1016.89 1017.03 1017.10 1017.12 1017.11 1017.10 1017.10 1017.13 1017.19 1017.30 1017.43 1017.57 1017.70 1017.79 1017.84 1017.84 1017.80 1017.72 1017.63 1017.55 1017.50 1017.49 1017.52 1017.60 1017.71 1017.87 1018.04 1018.24 1018.46
1013.92 1014.05 1014.21 1014.40 1014.61 1014.83 1015.08 1015.36 1015.66 1015.97 1016.30 1016.62 1016.93 1017.20 1017.41 1017.56 1017.65 1017.67 1017.66 1017.63 1017.61 1017.61 1017.64 1017.71 1017.80 1017.90 1017.98 1018.02 1018.01 1017.95 1017.84 1017.70 1017.55 1017.42 1017.31 1017.25 1017.24 1017.28 1017.37 1017.50 1017.67 1017.87 1018.09
1014.10 1014.24 1014.44 1014.67 1014.93 1015.21 1015.49 1015.78 1016.08 1016.38 1016.69 1017.01 1017.31 1017.59 1017.83 1018.02 1018.14 1018.20 1018.22 1018.22 1018.20 1018.20 1018.22 1018.26 1018.32 1018.37 1018.39 1018.37 1018.30 1018.17 1017.98 1017.77 1017.55 1017.34 1017.17 1017.04 1016.97 1016.95 1017.00 1017.09 1017.22 1017.40 1017.61
1014.15 1014.29 1014.52 1014.80 1015.12 1015.44 1015.76 1016.07 1016.36 1016.65 1016.94 1017.24 1017.54 1017.84 1018.11 1018.35 1018.54 1018.67 1018.76 1018.81 1018.85 1018.87 1018.91 1018.94 1018.97 1018.98 1018.95 1018.86 1018.72 1018.51 1018.25 1017.96 1017.66 1017.38 1017.13 1016.93 1016.79 1016.70 1016.67 1016.70 1016.77 1016.90 1017.08
1014.13 1014.28 1014.52 1014.84 1015.20 1015.56 1015.90 1016.21 1016.49 1016.75 1017.02 1017.29 1017.59 1017.90 1018.22 1018.52 1018.79 1019.02 1019.21 1019.36 1019.47 1019.56 1019.63 1019.68 1019.70 1019.68 1019.60 1019.46 1019.25 1018.98 1018.65 1018.29 1017.93 1017.57 1017.25 1016.98 1016.75 1016.59 1016.47 1016.41 1016.41 1016.46 1016.56
1014.13 1014.28 1014.53 1014.86 1015.23 1015.59 1015.93 1016.22 1016.47 1016.69 1016.92 1017.17 1017.46 1017.78 1018.14 1018.51 1018.87 1019.21 1019.51 1019.78 1019.99 1020.16 1020.30 1020.38 1020.42 1020.39 1020.29 1020.11 1019.85 1019.53 1019.15 1018.75 1018.33 1017.92 1017.54 1017.21 1016.91 1016.67 1016.47 1016.32 1016.21 1016.16 1016.16
1014.24 1014.36 1014.60 1014.91 1015.25 1015.59 1015.89 1016.13 1016.34 1016.51 1016.69 1016.90 1017.17 1017.50 1017.89 1018.32 1018.77 1019.21 1019.63 1020.01 1020.34 1020.61 1020.82 1020.97 1021.04 1021.02 1020.92 1020.73 1020.46 1020.11 1019.71 1019.27 1018.83 1018.40 1017.99 1017.62 1017.27 1016.97 1016.69 1016.45 1016.24 1016.07 1015.96
1014.49 1014.58 1014.77 1015.03 1015.32 1015.60 1015.83 1016.01 1016.15 1016.26 1016.39 1016.56 1016.80 1017.12 1017.52 1018.00 1018.51 1019.04 1019.57 1020.05 1020.49 1020.86 1021.16 1021.38 1021.50 1021.53 1021.45 1021.27 1021.00 1020.66 1020.26 1019.83 1019.39 1018.96 1018.55 1018.16 1017.80 1017.46 1017.13 1016.81 1016.51 1016.23 1016.00
1014.86 1014.91 1015.04 1015.23 1015.44 1015.64 1015.80 1015.91 1015.97 1016.02 1016.08 1016.20 1016.41 1016.71 1017.12 1017.61 1018.17 1018.76 1019.36 1019.93 1020.46 1020.93 1021.32 1021.62 1021.81 1021.89 1021.86 1021.71 1021.47 1021.16 1020.78 1020.38 1019.96 1019.56 1019.17 1018.80 1018.45 1018.09 1017.74 1017.37 1017.00 1016.63 1016.28
1015.30 1015.30 1015.37 1015.49 1015.62 1015.74 1015.82 1015.85 1015.85 1015.83 1015.85 1015.92 1016.09 1016.37 1016.75 1017.24 1017.81 1018.44 1019.08 1019.72 1020.33 1020.88 1021.36 1021.73 1022.00 1022.15 1022.17 1022.08 1021.89 1021.61 1021.27 1020.90 1020.53 1020.17 1019.82 1019.49 1019.16 1018.83 1018.47 1018.09 1017.67 1017.24 1016.81
1015.72 1015.70 1015.72 1015.78 1015.84 1015.89 1015.90 1015.88 1015.82 1015.77 1015.74 1015.78 1015.91 1016.15 1016.51 1016.98 1017.54 1018.17 1018.84 1019.52 1020.19 1020.80 1021.35 1021.81 1022.16 1022.37 1022.46 1022.43 1022.28 1022.04 1021.74 1021.42 1021.09 1020.77 1020.47 1020.18 1019.90 1019.61 1019.28 1018.90 1018.48 1018.02 1017.54
1016.08 1016.05 1016.05 1016.06 1016.08 1016.08 1016.06 1016.00 1015.92 1015.84 1015.80 1015.81 1015.92 1016.13 1016.46 1016.90 1017.43 1018.05 1018.72 1019.42 1020.12 1020.79 1021.40 1021.93 1022.35 1022.63 1022.78 1022.80 1022.69 1022.50 1022.24 1021.94 1021.64 1021.37 1021.11 1020.88 1020.65 1020.40 1020.12 1019.78 1019.39 1018.93 1018.45
1016.35 1016.33 1016.32 1016.33 1016.33 1016.32 1016.29 1016.23 1016.15 1016.07 1016.03 1016.04 1016.13 1016.31 1016.61 1017.01 1017.52 1018.11 1018.77 1019.48 1020.19 1020.90 1021.56 1022.14 1022.62 1022.96 1023.16 1023.23 1023.16 1022.99 1022.76 1022.49 1022.23 1021.98 1021.76 1021.58 1021.40 1021.21 1020.98 1020.70 1020.35 1019.94 1019.48
1016.54 1016.54 1016.56 1016.58 1016.60 1016.61 1016.59 1016.55 1016.50 1016.44 1016.41 1016.43 1016.52 1016.69 1016.96 1017.33 1017.80 1018.37 1019.00 1019.70 1020.42 1021.14 1021.83 1022.45 1022.97 1023.36 1023.60 1023.70 1023.67 1023.53 1023.32 1023.07 1022.83 1022.61 1022.43 1022.28 1022.15 1022.02 1021.85 1021.64 1021.35 1021.00 1020.60
1016.69 1016.74 1016.80 1016.85 1016.91 1016.95 1016.96 1016.96 1016.93 1016.91 1016.91 1016.94 1017.03 1017.20 1017.45 1017.80 1018.23 1018.76 1019.37 1020.04 1020.75 1021.47 1022.16 1022.80 1023.34 1023.76 1024.03 1024.17 1024.16 1024.05 1023.87 1023.65 1023.44 1023.25 1023.11 1023.00 1022.91 1022.83 1022.73 1022.57 1022.36 1022.08 1021.74
1016.87 1016.97 1017.07 1017.17 1017.26 1017.34 1017.39 1017.42 1017.43 1017.44 1017.47 1017.52 1017.62 1017.79 1018.03 1018.35 1018.75 1019.24 1019.81 1020.44 1021.11 1021.80 1022.48 1023.12 1023.66 1024.09 1024.39 1024.55 1024.58 1024.51 1024.37 1024.19 1024.02 1023.87 1023.77 1023.71 1023.67 1023.64 1023.58 1023.48 1023.33 1023.11 1022.85
1017.11 1017.25 1017.40 1017.54 1017.66 1017.77 1017.86 1017.91 1017.96 1017.99 1018.04 1018.12 1018.23 1018.39 1018.62 1018.92 1019.29 1019.73 1020.25 1020.82 1021.44 1022.08 1022.72 1023.32 1023.85 1024.27 1024.59 1024.77 1024.85 1024.83 1024.75 1024.64 1024.53 1024.44 1024.39 1024.38 1024.39 1024.40 1024.38 1024.33 1024.22 1024.05 1023.84
1017.42 1017.60 1017.78 1017.95 1018.11 1018.24 1018.34 1018.41 1018.47 1018.53 1018.60 1018.68 1018.81 1018.98 1019.19 1019.47 1019.80 1020.20 1020.65 1021.15 1021.70 1022.27 1022.84 1023.38 1023.87 1024.28 1024.60 1024.82 1024.95 1025.00 1024.99 1024.96 1024.93 1024.92 1024.94 1024.98 1025.03 1025.07 1025.09 1025.06 1024.98 1024.84 1024.66
1017.77 1017.99 1018.19 1018.39 1018.56 1018.70 1018.81 1018.89 1018.96 1019.03 1019.11 1019.21 1019.34 1019.51 1019.72 1019.98 1020.28 1020.61 1021.00 1021.42 1021.88 1022.36 1022.84 1023.31 1023.75 1024.14 1024.46 1024.71 1024.89 1025.01 1025.10 1025.16 1025.22 1025.29 1025.37 1025.47 1025.56 1025.62 1025.65 1025.63 1025.56 1025.43 1025.27
1018.12 1018.36 1018.60 1018.81 1018.99 1019.14 1019.25 1019.33 1019.40 1019.48 1019.57 1019.69 1019.83 1020.01 1020.22 1020.46 1020.72 1021.01 1021.32 1021.65 1022.02 1022.40 1022.79 1023.18 1023.57 1023.92 1024.24 1024.51 1024.74 1024.93 1025.10 1025.25 1025.39 1025.54 1025.68 1025.82 1025.93 1026.01 1026.05 1026.02 1025.94 1025.81 1025.64
1018.42 1018.70 1018.97 1019.20 1019.39 1019.53 1019.64 1019.72 1019.80 1019.89 1019.99 1020.12 1020.29 1020.48 1020.69 1020.92 1021.15 1021.39 1021.64 1021.90 1022.18 1022.47 1022.77 1023.09 1023.41 1023.73 1024.03 1024.32 1024.59 1024.83 1025.06 1025.28 1025.49 1025.68 1025.87 1026.03 1026.15 1026.23 1026.25 1026.21 1026.12 1025.98 1025.81
1018.65 1018.98 1019.28 1019.53 1019.73 1019.88 1019.99 1020.08 1020.16 1020.26 1020.38 1020.54 1020.72 1020.93 1021.15 1021.38 1021.60 1021.81 1022.01 1022.21 1022.41 1022.62 1022.86 1023.11 1023.38 1023.66 1023.95 1024.24 1024.53 1024.80 1025.06 1025.31 1025.55 1025.76 1025.95 1026.11 1026.23 1026.29 1026.30 1026.24 1026.13 1025.99 1025.82
1018.84 1019.21 1019.54 1019.81 1020.03 1020.19 1020.31 1020.40 1020.50 1020.61 1020.76 1020.94 1021.14 1021.37 1021.61 1021.84 1022.06 1022.25 1022.42 1022.58 1022.74 1022.91 1023.09 1023.30 1023.53 1023.78 1024.05 1024.33 1024.60 1024.88 1025.14 1025.38 1025.60 1025.80 1025.97 1026.10 1026.19 1026.23 1026.22 1026.15 1026.04 1025.90 1025.75
Thickness
5790 5790 5788 5787 5785 5784 5783 5781 5780 5778 5777 5776 5775 5774 5772 5772 5771 5771 5769 5769 5768 5766 5764 5762 5761 5760 5758 5757 5755 5754 5752 5750 5748 5747 5745 5743 5742 5740 5738 5736 5734 5733 5731
5790 5788 5786 5785 5784 5783 5782 5780 5778 5777 5775 5774 5773 5772 5772 5771 5770 5770 5769 5768 5766 5765 5763 5761 5760 5759 5758 5756 5754 5753 5751 5749 5747 5746 5744 5742 5740 5738 5736 5735 5733 5732 5730
5789 5787 5785 5783 5782 5781 5780 5779 5777 5776 5774 5772 5771 5771 5770 5770 5769 5768 5767 5766 5765 5763 5762 5760 5759 5758 5757 5755 5753 5751 5750 5748 5746 5744 5743 5741 5739 5737 5735 5734 5732 5731 5730
5787 5785 5783 5781 5781 5780 5778 5777 5775 5772 5770 5769 5768 5768 5769 5768 5768 5767 5765 5764 5763 5762 5761 5759 5758 5757 5755 5753 5752 5750 5748 5745 5744 5742 5740 5739 5737 5735 5734 5733 5731 5730 5729
5786 5784 5782 5780 5779 5778 5776 5775 5772 5770 5767 5766 5766 5766 5766 5766 5766 5765 5764 5762 5762 5761 5759 5758 5757 5755 5753 5752 5750 5749 5747 5744 5742 5740 5739 5737 5735 5734 5732 5731 5730 5729 5727
5785 5783 5780 5779 5778 5775 5773 5772 5770 5768 5766 5765 5765 5764 5764 5765 5765 5764 5763 5762 5760 5759 5758 5757 5755 5753 5751 5750 5748 5747 5745 5743 5741 5739 5737 5736 5734 5732 5731 5730 5728 5726 5725
5783 5782 5779 5777 5775 5773 5771 5770 5768 5766 5764 5764 5760 5757 5759 5762 5762 5762 5762 5760 5759 5758 5756 5755 5753 5751 5749 5747 5746 5745 5743 5742 5740 5737 5736 5734 5733 5731 5729 5728 5726 5724 5723
5782 5780 5777 5775 5773 5771 5769 5767 5766 5763 5762 5762 5757 5751 5747 5750 5756 5760 5759 5758 5757 5756 5754 5753 5751 5749 5746 5744 5743 5743 5741 5740 5738 5736 5734 5733 5732 5730 5728 5726 5724 5722 5721
5780 5778 5776 5774 5771 5769 5766 5765 5764 5761 5758 5759 5760 5753 5744 5740 5746 5752 5754 5754 5754 5752 5751 5750 5748 5747 5745 5742 5741 5740 5739 5738 5736 5734 5733 5731 5730 5728 5726 5724 5722 5720 5719
5777 5776 5774 5772 5770 5768 5765 5764 5764 5762 5759 5756 5757 5757 5754 5751 5743 5740 5745 5749 5749 5748 5747 5747 5746 5744 5742 5740 5739 5737 5735 5734 5733 5732 5730 5729 5728 5726 5724 5722 5720 5719 5717
5774 5773 5771 5770 5768 5766 5764 5762 5761 5760 5758 5756 5754 5753 5751 5749 5747 5740 5735 5738 5741 5743 5744 5743 5742 5740 5739 5737 5736 5734 5732 5731 5729 5728 5727 5726 5724 5723 5721 5720 5718 5716 5714
5770 5769 5768 5766 5764 5763 5761 5760 5759 5758 5757 5755 5753 5751 5748 5745 5742 5739 5735 5733 5733 5735 5738 5738 5737 5736 5735 5734 5733 5731 5729 5727 5726 5724 5723 5722 5720 5719 5718 5716 5714 5712 5710
5764 5764 5764 5763 5761 5760 5759 5757 5756 5755 5754 5752 5750 5748 5748 5746 5745 5741 5736 5730 5728 5730 5731 5732 5733 5732 5731 5730 5729 5727 5725 5723 5721 5720 5718 5717 5716 5714 5713 5712 5710 5708 5707
5762 5762 5760 5759 5758 5757 5756 5754 5752 5751 5750 5748 5747 5745 5744 5744 5743 5741 5736 5729 5723 5722 5723 5725 5727 5727 5727 5725 5724 5722 5720 5719 5717 5715 5713 5712 5711 5709 5708 5706 5705 5704 5702
5760 5758 5757 5755 5753 5753 5752 5750 5748 5746 5745 5744 5742 5741 5740 5739 5739 5738 5736 5732 5724 5715 5714 5718 5719 5721 5721 5720 5719 5717 5716 5714 5712 5710 5708 5706 5705 5704 5703 5701 5699 5698 5697
5756 5753 5751 5750 5749 5748 5747 5745 5743 5742 5740 5739 5738 5736 5735 5735 5734 5733 5731 5729 5726 5719 5712 5713 5714 5716 5716 5716 5714 5713 5711 5710 5707 5706 5704 5702 5700 5699 5697 5695 5694 5692 5691
5751 5748 5747 5745 5744 5742 5741 5739 5738 5737 5735 5733 5732 5731 5730 5730 5728 5727 5725 5723 5720 5716 5710 5709 5710 5711 5711 5710 5708 5707 5706 5705 5703 5702 5700 5698 5696 5694 5692 5690 5688 5686 5685
5746 5744 5742 5740 5738 5736 5735 5734 5732 5731 5729 5727 5726 5725 5724 5724 5722 5720 5718 5716 5714 5712 5707 5703 5703 5704 5704 5704 5702 5701 5701 5700 5698 5697 5695 5693 5691 5688 5686 5684 5683 5681 5680
5741 5738 5736 5734 5732 5731 5730 5728 5727 5725 5723 5722 5720 5719 5718 5717 5715 5713 5711 5709 5707 5707 5703 5699 5697 5697 5697 5697 5695 5695 5695 5694 5693 5692 5690 5687 5685 5683 5681 5680 5677 5676 5675
5735 5733 5731 5729 5727 5726 5725 5723 5721 5719 5718 5716 5715 5713 5712 5711 5709 5707 5705 5702 5701 5698 5696 5693 5691 5690 5689 5690 5688 5685 5685 5685 5685 5685 5683 5681 5679 5677 5675 5674 5672 5670 5669
5729 5727 5725 5723 5722 5721 5720 5718 5716 5714 5712 5709 5708 5707 5706 5705 5704 5702 5700 5696 5694 5691 5688 5685 5683 5682 5681 5680 5679 5679 5677 5677 5677 5677 5675 5674 5672 5670 5668 5667 5665 5664 5662
5722 5720 5718 5716 5715 5715 5715 5713 5710 5707 5705 5702 5700 5699 5699 5698 5697 5695 5694 5692 5689 5685 5681 5679 5677 5675 5675 5675 5674 5673 5670 5667 5666 5670 5668 5666 5665 5662 5662 5661 5660 5658 5656
5715 5713 5711 5709 5708 5708 5707 5706 5704 5701 5698 5694 5692 5691 5691 5691 5688 5687 5685 5685 5683 5682 5680 5675 5672 5672 5671 5670 5669 5666 5664 5663 5662 5664 5661 5658 5658 5656 5656 5656 5654 5652 5651
5708 5706 5704 5702 5701 5700 5700 5698 5697 5694 5690 5688 5686 5684 5682 5681 5681 5679 5677 5675 5674 5674 5673 5671 5670 5669 5668 5667 5665 5663 5660 5659 5658 5657 5657 5652 5651 5650 5651 5650 5648 5647 5645
5701 5699 5697 5695 5692 5692 5692 5690 5688 5685 5682 5680 5678 5677 5675 5673 5673 5671 5668 5666 5665 5666 5668 5667 5666 5664 5663 5662 5660 5655 5652 5648 5646 5648 5649 5647 5645 5644 5644 5643 5643 5641 5639
5695 5692 5689 5688 5685 5684 5684 5682 5680 5676 5672 5670 5669 5668 5667 5665 5664 5662 5660 5658 5656 5657 5658 5658 5657 5657 5656 5655 5653 5650 5647 5641 5639 5639 5642 5640 5638 5636 5635 5636 5636 5635 5632